Year,Month,Day,Hour,Minute,Value (Times are PST for temperature in C)
2013,10,17,00,00,5.80
2013,10,17,00,01,5.80
2013,10,17,00,02,5.80
2013,10,17,00,03,5.80
2013,10,17,00,04,5.80
2013,10,17,00,05,5.80
2013,10,17,00,06,5.80
2013,10,17,00,07,5.80
2013,10,17,00,08,5.80
2013,10,17,00,09,5.80
2013,10,17,00,10,5.80
2013,10,17,00,11,5.80
2013,10,17,00,12,5.80
2013,10,17,00,13,5.80
2013,10,17,00,14,5.80
2013,10,17,00,15,5.80
2013,10,17,00,16,5.80
2013,10,17,00,17,5.80
2013,10,17,00,18,5.80
2013,10,17,00,19,5.80
2013,10,17,00,20,5.80
2013,10,17,00,21,5.70
2013,10,17,00,22,5.70
2013,10,17,00,23,5.70
2013,10,17,00,24,5.70
2013,10,17,00,25,5.70
2013,10,17,00,26,5.70
2013,10,17,00,27,5.70
2013,10,17,00,28,5.70
2013,10,17,00,29,5.70
2013,10,17,00,30,5.70
2013,10,17,00,31,5.70
2013,10,17,00,32,5.70
2013,10,17,00,33,5.70
2013,10,17,00,34,5.70
2013,10,17,00,35,5.70
2013,10,17,00,36,5.70
2013,10,17,00,37,5.70
2013,10,17,00,38,5.70
2013,10,17,00,39,5.70
2013,10,17,00,40,5.70
2013,10,17,00,41,5.70
2013,10,17,00,42,5.70
2013,10,17,00,43,5.70
2013,10,17,00,44,5.60
2013,10,17,00,45,5.60
2013,10,17,00,46,5.60
2013,10,17,00,47,5.60
2013,10,17,00,48,5.60
2013,10,17,00,49,5.60
2013,10,17,00,50,5.60
2013,10,17,00,51,5.60
2013,10,17,00,52,5.60
2013,10,17,00,53,5.60
2013,10,17,00,54,5.60
2013,10,17,00,55,5.60
2013,10,17,00,56,5.60
2013,10,17,00,57,5.60
2013,10,17,00,58,5.60
2013,10,17,00,59,5.60
2013,10,17,01,00,5.60
2013,10,17,01,01,5.60
2013,10,17,01,02,5.60
2013,10,17,01,03,5.60
2013,10,17,01,04,5.70
2013,10,17,01,05,5.70
2013,10,17,01,06,5.70
2013,10,17,01,07,5.70
2013,10,17,01,08,5.70
2013,10,17,01,09,5.70
2013,10,17,01,10,5.70
2013,10,17,01,11,5.70
2013,10,17,01,12,5.70
2013,10,17,01,13,5.70
2013,10,17,01,14,5.70
2013,10,17,01,15,5.70
2013,10,17,01,16,5.70
2013,10,17,01,17,5.70
2013,10,17,01,18,5.80
2013,10,17,01,19,5.80
2013,10,17,01,20,5.80
2013,10,17,01,21,5.80
2013,10,17,01,22,5.80
2013,10,17,01,23,5.80
2013,10,17,01,24,5.80
2013,10,17,01,25,5.80
2013,10,17,01,26,5.80
2013,10,17,01,27,5.80
2013,10,17,01,28,5.80
2013,10,17,01,29,5.80
2013,10,17,01,30,5.80
2013,10,17,01,31,5.70
2013,10,17,01,32,5.70
2013,10,17,01,33,5.70
2013,10,17,01,34,5.70
2013,10,17,01,35,5.70
2013,10,17,01,36,5.70
2013,10,17,01,37,5.70
2013,10,17,01,38,5.60
2013,10,17,01,39,5.60
2013,10,17,01,40,5.60
2013,10,17,01,41,5.60
2013,10,17,01,42,5.50
2013,10,17,01,43,5.50
2013,10,17,01,44,5.50
2013,10,17,01,45,5.50
2013,10,17,01,46,5.50
2013,10,17,01,47,5.50
2013,10,17,01,48,5.50
2013,10,17,01,49,5.50
2013,10,17,01,50,5.40
2013,10,17,01,51,5.40
2013,10,17,01,52,5.40
2013,10,17,01,53,5.40
2013,10,17,01,54,5.40
2013,10,17,01,55,5.50
2013,10,17,01,56,5.50
2013,10,17,01,57,5.50
2013,10,17,01,58,5.50
2013,10,17,01,59,5.50
2013,10,17,02,00,5.40
2013,10,17,02,01,5.50
2013,10,17,02,02,5.40
2013,10,17,02,03,5.40
2013,10,17,02,04,5.40
2013,10,17,02,05,5.40
2013,10,17,02,06,5.40
2013,10,17,02,07,5.40
2013,10,17,02,08,5.40
2013,10,17,02,09,5.40
2013,10,17,02,10,5.40
2013,10,17,02,11,5.40
2013,10,17,02,12,5.40
2013,10,17,02,13,5.40
2013,10,17,02,14,5.30
2013,10,17,02,15,5.30
2013,10,17,02,16,5.30
2013,10,17,02,17,5.30
2013,10,17,02,18,5.30
2013,10,17,02,19,5.30
2013,10,17,02,20,5.30
2013,10,17,02,21,5.30
2013,10,17,02,22,5.30
2013,10,17,02,23,5.30
2013,10,17,02,24,5.30
2013,10,17,02,25,5.30
2013,10,17,02,26,5.30
2013,10,17,02,27,5.30
2013,10,17,02,28,5.30
2013,10,17,02,29,5.30
2013,10,17,02,30,5.30
2013,10,17,02,31,5.20
2013,10,17,02,32,5.20
2013,10,17,02,33,5.20
2013,10,17,02,34,5.20
2013,10,17,02,35,5.20
2013,10,17,02,36,5.20
2013,10,17,02,37,5.20
2013,10,17,02,38,5.20
2013,10,17,02,39,5.20
2013,10,17,02,40,5.20
2013,10,17,02,41,5.20
2013,10,17,02,42,5.20
2013,10,17,02,43,5.20
2013,10,17,02,44,5.20
2013,10,17,02,45,5.20
2013,10,17,02,46,5.20
2013,10,17,02,47,5.20
2013,10,17,02,48,5.20
2013,10,17,02,49,5.20
2013,10,17,02,50,5.20
2013,10,17,02,51,5.20
2013,10,17,02,52,5.20
2013,10,17,02,53,5.20
2013,10,17,02,54,5.20
2013,10,17,02,55,5.20
2013,10,17,02,56,5.20
2013,10,17,02,57,5.10
2013,10,17,02,58,5.10
2013,10,17,02,59,5.10
2013,10,17,03,00,5.10
2013,10,17,03,01,5.10
2013,10,17,03,02,5.00
2013,10,17,03,03,5.00
2013,10,17,03,04,5.00
2013,10,17,03,05,5.00
2013,10,17,03,06,5.00
2013,10,17,03,07,5.00
2013,10,17,03,08,5.00
2013,10,17,03,09,5.00
2013,10,17,03,10,5.00
2013,10,17,03,11,5.00
2013,10,17,03,12,4.90
2013,10,17,03,13,4.90
2013,10,17,03,14,4.90
2013,10,17,03,15,4.90
2013,10,17,03,16,4.90
2013,10,17,03,17,4.90
2013,10,17,03,18,4.90
2013,10,17,03,19,4.90
2013,10,17,03,20,4.90
2013,10,17,03,21,4.90
2013,10,17,03,22,4.90
2013,10,17,03,23,4.90
2013,10,17,03,24,4.90
2013,10,17,03,25,4.90
2013,10,17,03,26,4.80
2013,10,17,03,27,4.80
2013,10,17,03,28,4.80
2013,10,17,03,29,4.80
2013,10,17,03,30,4.80
2013,10,17,03,31,4.80
2013,10,17,03,32,4.80
2013,10,17,03,33,4.80
2013,10,17,03,34,4.90
2013,10,17,03,35,4.90
2013,10,17,03,36,4.90
2013,10,17,03,37,4.90
2013,10,17,03,38,4.90
2013,10,17,03,39,4.90
2013,10,17,03,40,4.80
2013,10,17,03,41,4.80
2013,10,17,03,42,4.80
2013,10,17,03,43,4.80
2013,10,17,03,44,4.80
2013,10,17,03,45,4.80
2013,10,17,03,46,4.80
2013,10,17,03,47,4.90
2013,10,17,03,48,4.90
2013,10,17,03,49,4.90
2013,10,17,03,50,4.90
2013,10,17,03,51,4.90
2013,10,17,03,52,4.90
2013,10,17,03,53,4.90
2013,10,17,03,54,4.80
2013,10,17,03,55,4.80
2013,10,17,03,56,4.80
2013,10,17,03,57,4.80
2013,10,17,03,58,4.80
2013,10,17,03,59,4.80
2013,10,17,04,00,4.80
2013,10,17,04,01,4.80
2013,10,17,04,02,4.80
2013,10,17,04,03,4.70
2013,10,17,04,04,4.70
2013,10,17,04,05,4.70
2013,10,17,04,06,4.70
2013,10,17,04,07,4.70
2013,10,17,04,08,4.60
2013,10,17,04,09,4.60
2013,10,17,04,10,4.60
2013,10,17,04,11,4.50
2013,10,17,04,12,4.50
2013,10,17,04,13,4.40
2013,10,17,04,14,4.40
2013,10,17,04,15,4.40
2013,10,17,04,16,4.40
2013,10,17,04,17,4.40
2013,10,17,04,18,4.40
2013,10,17,04,19,4.40
2013,10,17,04,20,4.40
2013,10,17,04,21,4.30
2013,10,17,04,22,4.30
2013,10,17,04,23,4.30
2013,10,17,04,24,4.30
2013,10,17,04,25,4.30
2013,10,17,04,26,4.30
2013,10,17,04,27,4.20
2013,10,17,04,28,4.20
2013,10,17,04,29,4.20
2013,10,17,04,30,4.20
2013,10,17,04,31,4.20
2013,10,17,04,32,4.20
2013,10,17,04,33,4.10
2013,10,17,04,34,4.10
2013,10,17,04,35,4.10
2013,10,17,04,36,4.10
2013,10,17,04,37,4.10
2013,10,17,04,38,4.00
2013,10,17,04,39,4.00
2013,10,17,04,40,3.90
2013,10,17,04,41,3.90
2013,10,17,04,42,3.90
2013,10,17,04,43,3.90
2013,10,17,04,44,3.80
2013,10,17,04,45,3.80
2013,10,17,04,46,3.80
2013,10,17,04,47,3.80
2013,10,17,04,48,3.80
2013,10,17,04,49,3.80
2013,10,17,04,50,3.80
2013,10,17,04,51,3.80
2013,10,17,04,52,3.80
2013,10,17,04,53,3.70
2013,10,17,04,54,3.70
2013,10,17,04,55,3.70
2013,10,17,04,56,3.70
2013,10,17,04,57,3.70
2013,10,17,04,58,3.70
2013,10,17,04,59,3.80
2013,10,17,05,00,3.80
2013,10,17,05,01,3.80
2013,10,17,05,02,3.80
2013,10,17,05,03,3.80
2013,10,17,05,04,3.90
2013,10,17,05,05,3.90
2013,10,17,05,06,3.90
2013,10,17,05,07,3.90
2013,10,17,05,08,3.80
2013,10,17,05,09,3.80
2013,10,17,05,10,3.80
2013,10,17,05,11,3.80
2013,10,17,05,12,3.80
2013,10,17,05,13,3.80
2013,10,17,05,14,3.80
2013,10,17,05,15,3.80
2013,10,17,05,16,3.70
2013,10,17,05,17,3.70
2013,10,17,05,18,3.70
2013,10,17,05,19,3.70
2013,10,17,05,20,3.70
2013,10,17,05,21,3.70
2013,10,17,05,22,3.70
2013,10,17,05,23,3.70
2013,10,17,05,24,3.70
2013,10,17,05,25,3.70
2013,10,17,05,26,3.70
2013,10,17,05,27,3.70
2013,10,17,05,28,3.70
2013,10,17,05,29,3.70
2013,10,17,05,30,3.70
2013,10,17,05,31,3.70
2013,10,17,05,32,3.70
2013,10,17,05,33,3.70
2013,10,17,05,34,3.70
2013,10,17,05,35,3.70
2013,10,17,05,36,3.70
2013,10,17,05,37,3.70
2013,10,17,05,38,3.70
2013,10,17,05,39,3.70
2013,10,17,05,40,3.70
2013,10,17,05,41,3.70
2013,10,17,05,42,3.70
2013,10,17,05,43,3.70
2013,10,17,05,44,3.70
2013,10,17,05,45,3.70
2013,10,17,05,46,3.70
2013,10,17,05,47,3.80
2013,10,17,05,48,3.80
2013,10,17,05,49,3.80
2013,10,17,05,50,3.80
2013,10,17,05,51,3.80
2013,10,17,05,52,3.80
2013,10,17,05,53,3.80
2013,10,17,05,54,3.90
2013,10,17,05,55,3.90
2013,10,17,05,56,3.90
2013,10,17,05,57,3.90
2013,10,17,05,58,3.90
2013,10,17,05,59,3.90
2013,10,17,06,00,3.90
2013,10,17,06,01,3.90
2013,10,17,06,02,3.90
2013,10,17,06,03,4.00
2013,10,17,06,04,3.90
2013,10,17,06,05,4.00
2013,10,17,06,06,4.00
2013,10,17,06,07,4.00
2013,10,17,06,08,4.00
2013,10,17,06,09,4.00
2013,10,17,06,10,3.90
2013,10,17,06,11,3.90
2013,10,17,06,12,4.00
2013,10,17,06,13,4.00
2013,10,17,06,14,4.00
2013,10,17,06,15,4.00
2013,10,17,06,16,4.00
2013,10,17,06,17,4.10
2013,10,17,06,18,4.10
2013,10,17,06,19,4.10
2013,10,17,06,20,4.10
2013,10,17,06,21,4.10
2013,10,17,06,22,4.10
2013,10,17,06,23,4.10
2013,10,17,06,24,4.10
2013,10,17,06,25,4.10
2013,10,17,06,26,4.10
2013,10,17,06,27,4.10
2013,10,17,06,28,4.10
2013,10,17,06,29,4.20
2013,10,17,06,30,4.20
2013,10,17,06,31,4.20
2013,10,17,06,32,4.30
2013,10,17,06,33,4.30
2013,10,17,06,34,4.30
2013,10,17,06,35,4.30
2013,10,17,06,36,4.30
2013,10,17,06,37,4.30
2013,10,17,06,38,4.40
2013,10,17,06,39,4.40
2013,10,17,06,40,4.40
2013,10,17,06,41,4.40
2013,10,17,06,42,4.40
2013,10,17,06,43,4.40
2013,10,17,06,44,4.40
2013,10,17,06,45,4.40
2013,10,17,06,46,4.40
2013,10,17,06,47,4.40
2013,10,17,06,48,4.40
2013,10,17,06,49,4.30
2013,10,17,06,50,4.30
2013,10,17,06,51,4.40
2013,10,17,06,52,4.40
2013,10,17,06,53,4.40
2013,10,17,06,54,4.40
2013,10,17,06,55,4.40
2013,10,17,06,56,4.40
2013,10,17,06,57,4.40
2013,10,17,06,58,4.40
2013,10,17,06,59,4.40
2013,10,17,07,00,4.40
2013,10,17,07,01,4.40
2013,10,17,07,02,4.40
2013,10,17,07,03,4.40
2013,10,17,07,04,4.40
2013,10,17,07,05,4.40
2013,10,17,07,06,4.40
2013,10,17,07,07,4.40
2013,10,17,07,08,4.40
2013,10,17,07,09,4.40
2013,10,17,07,10,4.30
2013,10,17,07,11,4.30
2013,10,17,07,12,4.30
2013,10,17,07,13,4.20
2013,10,17,07,14,4.20
2013,10,17,07,15,4.20
2013,10,17,07,16,4.20
2013,10,17,07,17,4.20
2013,10,17,07,18,4.20
2013,10,17,07,19,4.20
2013,10,17,07,20,4.20
2013,10,17,07,21,4.10
2013,10,17,07,22,4.10
2013,10,17,07,23,4.10
2013,10,17,07,24,4.10
2013,10,17,07,25,4.10
2013,10,17,07,26,4.10
2013,10,17,07,27,4.10
2013,10,17,07,28,4.10
2013,10,17,07,29,4.10
2013,10,17,07,30,4.20
2013,10,17,07,31,4.20
2013,10,17,07,32,4.20
2013,10,17,07,33,4.10
2013,10,17,07,34,4.10
2013,10,17,07,35,4.10
2013,10,17,07,36,4.10
2013,10,17,07,37,4.10
2013,10,17,07,38,4.10
2013,10,17,07,39,4.00
2013,10,17,07,40,4.00
2013,10,17,07,41,4.00
2013,10,17,07,42,4.00
2013,10,17,07,43,4.00
2013,10,17,07,44,4.00
2013,10,17,07,45,4.00
2013,10,17,07,46,4.00
2013,10,17,07,47,3.90
2013,10,17,07,48,3.90
2013,10,17,07,49,3.90
2013,10,17,07,50,3.90
2013,10,17,07,51,3.90
2013,10,17,07,52,3.90
2013,10,17,07,53,4.00
2013,10,17,07,54,4.00
2013,10,17,07,55,4.00
2013,10,17,07,56,4.00
2013,10,17,07,57,4.00
2013,10,17,07,58,4.10
2013,10,17,07,59,4.10
2013,10,17,08,00,4.10
2013,10,17,08,01,4.10
2013,10,17,08,02,4.10
2013,10,17,08,03,4.10
2013,10,17,08,04,4.20
2013,10,17,08,05,4.20
2013,10,17,08,06,4.20
2013,10,17,08,07,4.20
2013,10,17,08,08,4.20
2013,10,17,08,09,4.30
2013,10,17,08,10,4.30
2013,10,17,08,11,4.40
2013,10,17,08,12,4.40
2013,10,17,08,13,4.40
2013,10,17,08,14,4.40
2013,10,17,08,15,4.40
2013,10,17,08,16,4.40
2013,10,17,08,17,4.50
2013,10,17,08,18,4.50
2013,10,17,08,19,4.50
2013,10,17,08,20,4.60
2013,10,17,08,21,4.60
2013,10,17,08,22,4.70
2013,10,17,08,23,4.70
2013,10,17,08,24,4.70
2013,10,17,08,25,4.70
2013,10,17,08,26,4.70
2013,10,17,08,27,4.80
2013,10,17,08,28,4.80
2013,10,17,08,29,4.80
2013,10,17,08,30,4.80
2013,10,17,08,31,4.80
2013,10,17,08,32,4.80
2013,10,17,08,33,4.80
2013,10,17,08,34,4.80
2013,10,17,08,35,4.80
2013,10,17,08,36,4.90
2013,10,17,08,37,4.90
2013,10,17,08,38,4.90
2013,10,17,08,39,4.90
2013,10,17,08,40,4.90
2013,10,17,08,41,5.00
2013,10,17,08,42,5.00
2013,10,17,08,43,5.10
2013,10,17,08,44,5.10
2013,10,17,08,45,5.10
2013,10,17,08,46,5.20
2013,10,17,08,47,5.20
2013,10,17,08,48,5.20
2013,10,17,08,49,5.20
2013,10,17,08,50,5.20
2013,10,17,08,51,5.30
2013,10,17,08,52,5.40
2013,10,17,08,53,5.40
2013,10,17,08,54,5.50
2013,10,17,08,55,5.60
2013,10,17,08,56,5.60
2013,10,17,08,57,5.70
2013,10,17,08,58,5.80
2013,10,17,08,59,5.80
2013,10,17,09,00,5.80
2013,10,17,09,01,5.90
2013,10,17,09,02,5.90
2013,10,17,09,03,5.90
2013,10,17,09,04,6.00
2013,10,17,09,05,6.10
2013,10,17,09,06,6.10
2013,10,17,09,07,6.10
2013,10,17,09,08,6.20
2013,10,17,09,09,6.20
2013,10,17,09,10,6.20
2013,10,17,09,11,6.30
2013,10,17,09,12,6.30
2013,10,17,09,13,6.30
2013,10,17,09,14,6.30
2013,10,17,09,15,6.30
2013,10,17,09,16,6.30
2013,10,17,09,17,6.40
2013,10,17,09,18,6.40
2013,10,17,09,19,6.50
2013,10,17,09,20,6.50
2013,10,17,09,21,6.60
2013,10,17,09,22,6.60
2013,10,17,09,23,6.70
2013,10,17,09,24,6.70
2013,10,17,09,25,6.70
2013,10,17,09,26,6.80
2013,10,17,09,27,6.80
2013,10,17,09,28,6.80
2013,10,17,09,29,6.80
2013,10,17,09,30,6.80
2013,10,17,09,31,6.80
2013,10,17,09,32,6.90
2013,10,17,09,33,6.90
2013,10,17,09,34,6.90
2013,10,17,09,35,6.90
2013,10,17,09,36,6.90
2013,10,17,09,37,7.00
2013,10,17,09,38,7.00
2013,10,17,09,39,7.10
2013,10,17,09,40,7.10
2013,10,17,09,41,7.20
2013,10,17,09,42,7.20
2013,10,17,09,43,7.20
2013,10,17,09,44,7.20
2013,10,17,09,45,7.30
2013,10,17,09,46,7.30
2013,10,17,09,47,7.40
2013,10,17,09,48,7.40
2013,10,17,09,49,7.40
2013,10,17,09,50,7.40
2013,10,17,09,51,7.40
2013,10,17,09,52,7.40
2013,10,17,09,53,7.40
2013,10,17,09,54,7.50
2013,10,17,09,55,7.50
2013,10,17,09,56,7.60
2013,10,17,09,57,7.60
2013,10,17,09,58,7.60
2013,10,17,09,59,7.60
2013,10,17,10,00,7.70
2013,10,17,10,01,7.70
2013,10,17,10,02,7.70
2013,10,17,10,03,7.70
2013,10,17,10,04,7.70
2013,10,17,10,05,7.70
2013,10,17,10,06,7.70
2013,10,17,10,07,7.80
2013,10,17,10,08,7.80
2013,10,17,10,09,7.90
2013,10,17,10,10,7.90
2013,10,17,10,11,8.00
2013,10,17,10,12,8.10
2013,10,17,10,13,8.10
2013,10,17,10,14,8.20
2013,10,17,10,15,8.30
2013,10,17,10,16,8.30
2013,10,17,10,17,8.40
2013,10,17,10,18,8.50
2013,10,17,10,19,8.60
2013,10,17,10,20,8.60
2013,10,17,10,21,8.70
2013,10,17,10,22,8.70
2013,10,17,10,23,8.70
2013,10,17,10,24,8.70
2013,10,17,10,25,8.70
2013,10,17,10,26,8.70
2013,10,17,10,27,8.70
2013,10,17,10,28,8.70
2013,10,17,10,29,8.70
2013,10,17,10,30,8.70
2013,10,17,10,31,8.60
2013,10,17,10,32,8.60
2013,10,17,10,33,8.60
2013,10,17,10,34,8.60
2013,10,17,10,35,8.60
2013,10,17,10,36,8.60
2013,10,17,10,37,8.60
2013,10,17,10,38,8.60
2013,10,17,10,39,8.60
2013,10,17,10,40,8.60
2013,10,17,10,41,8.60
2013,10,17,10,42,8.60
2013,10,17,10,43,8.60
2013,10,17,10,44,8.70
2013,10,17,10,45,8.80
2013,10,17,10,46,8.80
2013,10,17,10,47,8.80
2013,10,17,10,48,8.80
2013,10,17,10,49,8.90
2013,10,17,10,50,8.90
2013,10,17,10,51,9.00
2013,10,17,10,52,9.10
2013,10,17,10,53,9.10
2013,10,17,10,54,9.10
2013,10,17,10,55,9.20
2013,10,17,10,56,9.20
2013,10,17,10,57,9.20
2013,10,17,10,58,9.20
2013,10,17,10,59,9.20
2013,10,17,11,00,9.30
2013,10,17,11,01,9.30
2013,10,17,11,02,9.30
2013,10,17,11,03,9.30
2013,10,17,11,04,9.40
2013,10,17,11,05,9.40
2013,10,17,11,06,9.40
2013,10,17,11,07,9.50
2013,10,17,11,08,9.60
2013,10,17,11,09,9.60
2013,10,17,11,10,9.60
2013,10,17,11,11,9.70
2013,10,17,11,12,9.70
2013,10,17,11,13,9.70
2013,10,17,11,14,9.80
2013,10,17,11,15,9.80
2013,10,17,11,16,9.80
2013,10,17,11,17,9.80
2013,10,17,11,18,9.80
2013,10,17,11,19,9.80
2013,10,17,11,20,9.80
2013,10,17,11,21,9.80
2013,10,17,11,22,9.90
2013,10,17,11,23,9.90
2013,10,17,11,24,9.90
2013,10,17,11,25,10.00
2013,10,17,11,26,10.00
2013,10,17,11,27,10.00
2013,10,17,11,28,10.10
2013,10,17,11,29,10.10
2013,10,17,11,30,10.20
2013,10,17,11,31,10.20
2013,10,17,11,32,10.20
2013,10,17,11,33,10.30
2013,10,17,11,34,10.30
2013,10,17,11,35,10.40
2013,10,17,11,36,10.40
2013,10,17,11,37,10.50
2013,10,17,11,38,10.50
2013,10,17,11,39,10.60
2013,10,17,11,40,10.70
2013,10,17,11,41,10.70
2013,10,17,11,42,10.80
2013,10,17,11,43,10.80
2013,10,17,11,44,10.90
2013,10,17,11,45,11.00
2013,10,17,11,46,11.00
2013,10,17,11,47,11.10
2013,10,17,11,48,11.20
2013,10,17,11,49,11.30
2013,10,17,11,50,11.40
2013,10,17,11,51,11.40
2013,10,17,11,52,11.40
2013,10,17,11,53,11.50
2013,10,17,11,54,11.50
2013,10,17,11,55,11.60
2013,10,17,11,56,11.60
2013,10,17,11,57,11.60
2013,10,17,11,58,11.60
2013,10,17,11,59,11.60
2013,10,17,12,00,11.60
2013,10,17,12,01,11.60
2013,10,17,12,02,11.60
2013,10,17,12,03,11.60
2013,10,17,12,04,11.70
2013,10,17,12,05,11.70
2013,10,17,12,06,11.70
2013,10,17,12,07,11.80
2013,10,17,12,08,11.80
2013,10,17,12,09,11.80
2013,10,17,12,10,11.90
2013,10,17,12,11,11.90
2013,10,17,12,12,11.90
2013,10,17,12,13,11.90
2013,10,17,12,14,11.90
2013,10,17,12,15,12.00
2013,10,17,12,16,12.00
2013,10,17,12,17,12.00
2013,10,17,12,18,12.10
2013,10,17,12,19,12.10
2013,10,17,12,20,12.10
2013,10,17,12,21,12.10
2013,10,17,12,22,12.20
2013,10,17,12,23,12.20
2013,10,17,12,24,12.30
2013,10,17,12,25,12.30
2013,10,17,12,26,12.30
2013,10,17,12,27,12.40
2013,10,17,12,28,12.50
2013,10,17,12,29,12.50
2013,10,17,12,30,12.60
2013,10,17,12,31,12.70
2013,10,17,12,32,12.80
2013,10,17,12,33,12.80
2013,10,17,12,34,12.90
2013,10,17,12,35,12.90
2013,10,17,12,36,13.00
2013,10,17,12,37,13.00
2013,10,17,12,38,13.00
2013,10,17,12,39,12.90
2013,10,17,12,40,12.90
2013,10,17,12,41,12.80
2013,10,17,12,42,12.80
2013,10,17,12,43,12.80
2013,10,17,12,44,12.80
2013,10,17,12,45,12.90
2013,10,17,12,46,12.90
2013,10,17,12,47,12.90
2013,10,17,12,48,12.90
2013,10,17,12,49,13.00
2013,10,17,12,50,13.10
2013,10,17,12,51,13.10
2013,10,17,12,52,13.10
2013,10,17,12,53,13.10
2013,10,17,12,54,13.10
2013,10,17,12,55,13.10
2013,10,17,12,56,13.10
2013,10,17,12,57,13.20
2013,10,17,12,58,13.20
2013,10,17,12,59,13.20
2013,10,17,13,00,13.20
2013,10,17,13,01,13.30
2013,10,17,13,02,13.30
2013,10,17,13,03,13.30
2013,10,17,13,04,13.30
2013,10,17,13,05,13.30
2013,10,17,13,06,13.30
2013,10,17,13,07,13.30
2013,10,17,13,08,13.20
2013,10,17,13,09,13.20
2013,10,17,13,10,13.20
2013,10,17,13,11,13.20
2013,10,17,13,12,13.30
2013,10,17,13,13,13.30
2013,10,17,13,14,13.30
2013,10,17,13,15,13.40
2013,10,17,13,16,13.40
2013,10,17,13,17,13.40
2013,10,17,13,18,13.40
2013,10,17,13,19,13.40
2013,10,17,13,20,13.40
2013,10,17,13,21,13.40
2013,10,17,13,22,13.50
2013,10,17,13,23,13.50
2013,10,17,13,24,13.60
2013,10,17,13,25,13.60
2013,10,17,13,26,13.60
2013,10,17,13,27,13.70
2013,10,17,13,28,13.70
2013,10,17,13,29,13.80
2013,10,17,13,30,13.80
2013,10,17,13,31,13.80
2013,10,17,13,32,13.90
2013,10,17,13,33,14.00
2013,10,17,13,34,14.00
2013,10,17,13,35,14.10
2013,10,17,13,36,14.10
2013,10,17,13,37,14.20
2013,10,17,13,38,14.20
2013,10,17,13,39,14.30
2013,10,17,13,40,14.30
2013,10,17,13,41,14.30
2013,10,17,13,42,14.30
2013,10,17,13,43,14.30
2013,10,17,13,44,14.30
2013,10,17,13,45,14.40
2013,10,17,13,46,14.40
2013,10,17,13,47,14.50
2013,10,17,13,48,14.50
2013,10,17,13,49,14.60
2013,10,17,13,50,14.60
2013,10,17,13,51,14.60
2013,10,17,13,52,14.60
2013,10,17,13,53,14.60
2013,10,17,13,54,14.70
2013,10,17,13,55,14.70
2013,10,17,13,56,14.70
2013,10,17,13,57,14.70
2013,10,17,13,58,14.70
2013,10,17,13,59,14.70
2013,10,17,14,00,14.70
2013,10,17,14,01,14.70
2013,10,17,14,02,14.80
2013,10,17,14,03,14.90
2013,10,17,14,04,15.00
2013,10,17,14,05,15.00
2013,10,17,14,06,15.00
2013,10,17,14,07,15.00
2013,10,17,14,08,15.10
2013,10,17,14,09,15.10
2013,10,17,14,10,15.10
2013,10,17,14,11,15.10
2013,10,17,14,12,15.10
2013,10,17,14,13,15.00
2013,10,17,14,14,15.00
2013,10,17,14,15,15.00
2013,10,17,14,16,15.00
2013,10,17,14,17,15.00
2013,10,17,14,18,14.90
2013,10,17,14,19,14.80
2013,10,17,14,20,14.80
2013,10,17,14,21,14.90
2013,10,17,14,22,15.00
2013,10,17,14,23,15.00
2013,10,17,14,24,15.00
2013,10,17,14,25,15.00
2013,10,17,14,26,15.00
2013,10,17,14,27,15.00
2013,10,17,14,28,15.00
2013,10,17,14,29,15.00
2013,10,17,14,30,15.00
2013,10,17,14,31,15.00
2013,10,17,14,32,15.00
2013,10,17,14,33,15.00
2013,10,17,14,34,15.00
2013,10,17,14,35,15.00
2013,10,17,14,36,15.00
2013,10,17,14,37,15.00
2013,10,17,14,38,15.00
2013,10,17,14,39,15.00
2013,10,17,14,40,15.00
2013,10,17,14,41,15.00
2013,10,17,14,42,15.00
2013,10,17,14,43,15.00
2013,10,17,14,44,15.00
2013,10,17,14,45,15.00
2013,10,17,14,46,15.00
2013,10,17,14,47,15.00
2013,10,17,14,48,15.00
2013,10,17,14,49,15.00
2013,10,17,14,50,15.00
2013,10,17,14,51,15.00
2013,10,17,14,52,15.00
2013,10,17,14,53,15.00
2013,10,17,14,54,15.00
2013,10,17,14,55,15.10
2013,10,17,14,56,15.10
2013,10,17,14,57,15.00
2013,10,17,14,58,15.00
2013,10,17,14,59,15.00
2013,10,17,15,00,15.00
2013,10,17,15,01,15.00
2013,10,17,15,02,15.00
2013,10,17,15,03,15.00
2013,10,17,15,04,15.00
2013,10,17,15,05,15.00
2013,10,17,15,06,15.00
2013,10,17,15,07,15.00
2013,10,17,15,08,15.00
2013,10,17,15,09,15.00
2013,10,17,15,10,15.00
2013,10,17,15,11,15.00
2013,10,17,15,12,15.00
2013,10,17,15,13,15.00
2013,10,17,15,14,15.00
2013,10,17,15,15,15.00
2013,10,17,15,16,15.00
2013,10,17,15,17,15.00
2013,10,17,15,18,15.00
2013,10,17,15,19,15.00
2013,10,17,15,20,15.00
2013,10,17,15,21,15.00
2013,10,17,15,22,15.00
2013,10,17,15,23,15.00
2013,10,17,15,24,15.00
2013,10,17,15,25,15.00
2013,10,17,15,26,15.00
2013,10,17,15,27,15.00
2013,10,17,15,28,15.00
2013,10,17,15,29,15.00
2013,10,17,15,30,15.00
2013,10,17,15,31,15.00
2013,10,17,15,32,15.00
2013,10,17,15,33,15.00
2013,10,17,15,34,15.00
2013,10,17,15,35,15.00
2013,10,17,15,36,14.90
2013,10,17,15,37,14.80
2013,10,17,15,38,14.90
2013,10,17,15,39,15.00
2013,10,17,15,40,15.00
2013,10,17,15,41,15.00
2013,10,17,15,42,15.00
2013,10,17,15,43,15.00
2013,10,17,15,44,15.00
2013,10,17,15,45,15.00
2013,10,17,15,46,15.00
2013,10,17,15,47,15.00
2013,10,17,15,48,15.00
2013,10,17,15,49,15.00
2013,10,17,15,50,15.00
2013,10,17,15,51,15.00
2013,10,17,15,52,15.00
2013,10,17,15,53,15.00
2013,10,17,15,54,15.00
2013,10,17,15,55,15.00
2013,10,17,15,56,15.00
2013,10,17,15,57,15.00
2013,10,17,15,58,15.00
2013,10,17,15,59,15.00
2013,10,17,16,00,15.00
2013,10,17,16,01,15.00
2013,10,17,16,02,15.00
2013,10,17,16,03,15.00
2013,10,17,16,04,15.00
2013,10,17,16,05,15.00
2013,10,17,16,06,15.00
2013,10,17,16,07,15.00
2013,10,17,16,08,15.00
2013,10,17,16,09,15.00
2013,10,17,16,10,15.00
2013,10,17,16,11,14.90
2013,10,17,16,12,14.80
2013,10,17,16,13,14.80
2013,10,17,16,14,14.70
2013,10,17,16,15,14.70
2013,10,17,16,16,14.60
2013,10,17,16,17,14.60
2013,10,17,16,18,14.60
2013,10,17,16,19,14.60
2013,10,17,16,20,14.50
2013,10,17,16,21,14.50
2013,10,17,16,22,14.50
2013,10,17,16,23,14.50
2013,10,17,16,24,14.50
2013,10,17,16,25,14.50
2013,10,17,16,26,14.40
2013,10,17,16,27,14.40
2013,10,17,16,28,14.40
2013,10,17,16,29,14.40
2013,10,17,16,30,14.30
2013,10,17,16,31,14.30
2013,10,17,16,32,14.30
2013,10,17,16,33,14.20
2013,10,17,16,34,14.20
2013,10,17,16,35,14.20
2013,10,17,16,36,14.20
2013,10,17,16,37,14.20
2013,10,17,16,38,14.10
2013,10,17,16,39,14.10
2013,10,17,16,40,14.10
2013,10,17,16,41,14.10
2013,10,17,16,42,14.10
2013,10,17,16,43,14.10
2013,10,17,16,44,14.10
2013,10,17,16,45,14.10
2013,10,17,16,46,14.10
2013,10,17,16,47,14.10
2013,10,17,16,48,14.00
2013,10,17,16,49,14.00
2013,10,17,16,50,14.10
2013,10,17,16,51,14.10
2013,10,17,16,52,14.10
2013,10,17,16,53,14.10
2013,10,17,16,54,14.10
2013,10,17,16,55,14.10
2013,10,17,16,56,14.10
2013,10,17,16,57,14.10
2013,10,17,16,58,14.10
2013,10,17,16,59,14.10
2013,10,17,17,00,14.10
2013,10,17,17,01,14.10
2013,10,17,17,02,14.10
2013,10,17,17,03,14.10
2013,10,17,17,04,14.10
2013,10,17,17,05,14.10
2013,10,17,17,06,14.10
2013,10,17,17,07,14.10
2013,10,17,17,08,14.20
2013,10,17,17,09,14.20
2013,10,17,17,10,14.20
2013,10,17,17,11,14.20
2013,10,17,17,12,14.20
2013,10,17,17,13,14.20
2013,10,17,17,14,14.20
2013,10,17,17,15,14.20
2013,10,17,17,16,14.20
2013,10,17,17,17,14.20
2013,10,17,17,18,14.20
2013,10,17,17,19,14.20
2013,10,17,17,20,14.10
2013,10,17,17,21,14.10
2013,10,17,17,22,14.00
2013,10,17,17,23,14.00
2013,10,17,17,24,14.00
2013,10,17,17,25,13.90
2013,10,17,17,26,13.80
2013,10,17,17,27,13.80
2013,10,17,17,28,13.70
2013,10,17,17,29,13.60
2013,10,17,17,30,13.50
2013,10,17,17,31,13.40
2013,10,17,17,32,13.20
2013,10,17,17,33,13.10
2013,10,17,17,34,13.00
2013,10,17,17,35,12.90
2013,10,17,17,36,12.80
2013,10,17,17,37,12.60
2013,10,17,17,38,12.50
2013,10,17,17,39,12.40
2013,10,17,17,40,12.40
2013,10,17,17,41,12.30
2013,10,17,17,42,12.20
2013,10,17,17,43,12.20
2013,10,17,17,44,12.10
2013,10,17,17,45,12.00
2013,10,17,17,46,11.90
2013,10,17,17,47,11.90
2013,10,17,17,48,11.80
2013,10,17,17,49,11.80